Погода Cayenne

Поиск расширенной информации на нашем сайте:

Полезная информация:

Новости сайта



02.01.2020
Опубликован Долгосрочный прогноз погоды по городам России и ближнего зарубежья на январь 2020 года.
Карты: Прогноз на январь и февраль 2020 года, Сравнение прогнозируемой аномалии приземной температуры воздуха на январь 2020 года по разным моделям.




Погода Cayenne - сегодня

Время (UTC), дата Ветер
(°,м/с) 
Видим.   Явления Облачность Т
(°С)
Тd
(°С)
f(%) Тe
(°С)
Pmin
(гПа)
dP
(гПа)
Po
(мм)
O2
(г/м3)
Тmin Tmax R s Состояние
почвы
15 22.01.22 050 (СВ) 45000 м    10/10 300 м 
+28.4 +23.8 76 +56  1012.7    759  271           
18 22.01.22 040 (СВ) 4800 м  слаб. дождь  10/10 100 м 
+24.2 +22.6 91 +49  1010.8    757  274         
21 22.01.22 350 (С) 50000 м    9/0 
+23 +21.8 93 +46  1010.4    757  276      0.4     
00 23.01.22 тихо ()   20000 м    9/9 300 м 
+22.7 +21.7 94 +45  1011.4    758  276    +29.3       
03 23.01.22 220 (ЮЗ) 35000 м    10/10 300 м 
+22.9 +22.4 97 +47  1012.1    758  276           
06 23.01.22 260 (З) 35000 м    10/10 50 м 
+22.9 +22.4 97 +47  1010.5    757  276           
09 23.01.22 260 (З) 3200 м  слаб. дождь  10/10 300 м 
+23.1 +22.6 97 +48  1010.3    757  275         
12 23.01.22 070 (В) 1600 м  дождь  10/10 200 м 
+23.4 +22.9 97 +49  1012.8    759  276  +22.7    13     
15 23.01.22 090 (В) 4500 м  дымка  10/10 200 м 
+25.6 +23.8 90 +53  1013    759  273         
18 23.01.22 360 (С) 1900 м  дождь  10/10 600 м 
+24.9 +23.5 92 +52  1010.8    757  273      10     
21 23.01.22 010 (С) 60000 м    10/10 300 м 
+25.7 +23.9 90 +54  1010.1    757  272           
00 24.01.22 010 (С) 50000 м    9/9 300 м 
+23.9 +23 95 +50  1011.9    758  275    +27.8       
03 24.01.22 250 (З) 20000 м    10/10 50 м 
+23.4 +22.7 96 +48  1011.9    758  275           
06 24.01.22 240 (ЮЗ) 1100 м  дымка  н/о 
+22.7 +22.2 97 +46  1010.3    757  276           
09 24.01.22 220 (ЮЗ) 35000 м    8/8 300 м 
+22.7 +22.4 98 +47  1010.6    757  276      0.0     
12 24.01.22 140 (ЮВ) 55000 м    н/о 
+25.4 +24.2 93 +54  1012.7    759  273  +22.3    0.0     
15 24.01.22 170 (Ю) 0500 м  сильн. дождь  10/10 100 м 
+23.8 +23.1 96 +50  1013.3    759  275      17     
18 24.01.22 060 (СВ) 12000 м  слаб. дождь  10/10 200 м 
+24.9 +23.3 91 +51  1011.3    758  274      0.8     
21 24.01.22 070 (В) 55000 м    10/10 300 м 
+25.5 +22.8 85 +51  1010.8    757  273           
00 25.01.22 110 (В) 60000 м    10/10 1500 м 
+24.1 +22.9 93 +49  1012.4    759  275    +26.5       
03 25.01.22 050 (СВ) 60000 м    н/о 
+22.9 +21.9 94 +46  1012.5    759  276      0.0     
06 25.01.22 тихо ()   60000 м    8/0 
+22.2 +21.7 97 +45  1010.7    757  277      0.2     
09 25.01.22 тихо ()   55000 м    9/9 <0100 м 
+21.9 +21.4 97 +44  1010.6    757  277           
12 25.01.22 тихо ()   45000 м    н/о 
+26 +23.9 88 +54  1013.1    759  273  +21.8         
15 25.01.22 060 (СВ) 55000 м    9/9 600 м 
+28.9 +23.6 73 +56  1012.3    759  270           
Время (UTC), дата Ветер
(°,м/с) 
Видим.   Явления Облачность Т
(°С)
Тd
(°С)
f(%) Тe
(°С)
Pmin
(гПа)
dP
(гПа)
Po
(мм)
O2
(г/м3)
Тmin Tmax R s Состояние
почвы

Для получения пояснительной информации подведите курсор к названию столбца.

ПОГОДА Cayenne - архив

Всё, что Вы хотите узнать о погоде Cayenne - удобно и подробно!

Выберите нужную дату (начиная с 1 января 2019* года) и нажмите кнопку "Найти".
Будут отображены архивные сводки погоды по пункту Cayenne, начиная с указанной даты.


Отображать данные в формате CSV (для использования в таблицах Excel)


Внимание! Наш архив погоды предназначен исключительно для личного некоммерческого использования в познавательных целях. Если Вам необходимы официальные справки о состоянии погоды (для производственных, юридических, коммерческих и т.п. целей), обращайтесь в органы Росгидромета.

*Примечание: данная дата относится к архиву по метеостанциям СССР (Россия, СНГ, Балтия).
Архив по метеостанциям Зарубежной Европы и Азии (кроме Китая) хранится 10 дней, по другим регионам земного шара (Китай, Африка, Америка, Австралия, Океания) - 1 день.

Cayenne - район местоположения метеостанции


Название, широта, долгота, высота метеостанции:
Cayenne (Rochambeau) 4.8°ш. -52.4°д. 9 м над ур. моря [French Guiana]

Дополнительная информация

В oтличие oт бoльшинства пoгoдных сайтoв мы публикуем пoдрoбную метеoинфoрмацию в детальнoм прoфессиoнальнoм фoрмате.

Характеристики температуры и влажнoсти вoздуха измеряются на высoте 2 м в тени вдали oт зданий и деревьев.
Скoрoсть ветра измеряется на высoте 10 м (на урoвне рoста челoвека скoрoсть ветра ниже в 1.5-2 раза). Если метеoстанция нахoдится в гoрoде или в лесу, тo скoрoсть ветра занижена на 2-4 м/с пo сравнению с oткрытым местoм. Скoрoсть ветра над акватoриями крупных рек и oзёр, а также на вершинах хoлмoв на 2-5 м/с выше, чем в oбычных услoвиях.
Атмoсфернoе давление в разных тoчках местнoсти мoжет значительнo oтличаться oт давления на метеoстанции, в зависимoсти oт услoвий рельефа (при пoдъёме на 10 м давление пoнижается примернo на 1 мм рт.ст.).